#timestamp,LO_Frequency,Hit,StdDev 
1541545215.8,286046999.9,N
1541545235.7,286047000.4,N
1541545255.5,286047000.1,N
1541545275.3,286047000.9,N
1541545295.2,286047002.5,N
1541545315.0,286047003.8,N
1541545315.9,286047003.8,N
1541545335.8,286047003.8,N
1541545355.6,286047004.9,N
1541545375.4,286047005.4,N
1541545395.3,286047001.7,N
1541545415.1,286047004.0,N
1541545435.8,286047003.9,N
1541545455.7,286047001.3,N
1541545475.5,286047002.1,N
1541545495.4,286047002.1,N
1541545515.2,286047004.3,N
1541545535.0,286047003.2,N
1541545535.9,286047003.2,N
1541545555.8,286047005.9,Y
1541545575.6,286047001.0,P
1541545595.5,286047000.2,N
1541545615.3,286046999.7,N
1541545635.1,286047000.1,N
1541545655.9,286047001.0,N
1541545675.7,286047002.3,N
1541545695.5,286047002.8,N
1541545715.4,286047000.1,N
1541545735.2,286047001.2,N
1541545755.1,286047001.1,N
1541545756.0,286047001.1,N
1541545775.8,286047000.7,N
1541545795.6,286047001.0,N
1541545815.5,286047000.4,N
1541545835.3,286046998.3,N
1541545855.1,286046998.1,N
1541545875.9,286046998.6,N
1541545895.7,286047000.9,N
1541545915.6,286047002.8,N
1541545935.4,286046999.8,N
1541545955.2,286047001.7,N
1541545975.1,286047003.2,N
1541545976.0,286047003.2,N
1541545995.8,286047002.9,N
1541546015.7,286047003.4,N
1541546035.5,286047005.7,Y
1541546055.3,286047002.2,P
1541546075.2,286047002.5,P
1541546095.0,286047002.3,P
1541546095.9,286047002.3,Y
1541546115.7,286047001.2,P
1541546135.6,286046998.8,P
1541546155.4,286046998.6,N
1541546175.3,286046997.0,N
1541546195.1,286046999.4,N
1541546196.0,286046999.4,N
1541546215.8,286047000.6,N
1541546235.7,286046998.9,N
1541546255.5,286046998.2,N
1541546275.4,286047000.4,N
1541546295.2,286047000.0,N
1541546315.0,286046998.4,N
1541546315.9,286046998.4,N
1541546335.8,286047000.7,N
1541546355.6,286047000.9,N
1541546375.4,286046998.4,N
1541546395.3,286046998.7,N
1541546415.1,286046996.9,N
1541546435.9,286046996.5,N
1541546455.7,286046996.5,N
1541546475.5,286046999.8,N
1541546495.4,286046996.7,N
1541546515.2,286046998.6,N
1541546535.0,286046998.3,N
1541546536.0,286046998.3,N
1541546555.8,286046998.7,N
1541546575.6,286046997.8,N
1541546595.5,286046996.9,N
1541546615.3,286046998.7,N
1541546635.1,286047002.5,N
1541546655.9,286047001.9,N
1541546675.7,286047001.5,N
1541546695.6,286047004.3,N
1541546715.4,286047001.4,N
1541546735.2,286047003.9,N
1541546755.1,286047003.9,N
1541546756.0,286047003.9,N
1541546775.8,286047004.3,N
1541546795.7,286047002.2,N
1541546815.5,286047003.3,N
1541546835.3,286047004.3,N
1541546855.2,286047001.8,N
1541546875.0,286047001.3,N
1541546875.9,286047001.3,N
1541546895.7,286047004.1,N
1541546915.6,286047004.3,N
1541546935.4,286046999.7,N
1541546955.3,286047001.8,N
1541546975.1,286047004.4,N
1541546976.0,286047004.4,N
1541546995.8,286047001.9,N
1541547015.7,286047004.2,N
1541547035.5,286047001.5,N
1541547055.4,286047001.5,N
1541547075.2,286047003.6,N
1541547095.0,286047005.5,N
1541547095.9,286047005.5,N
1541547115.8,286047004.3,N
1541547135.6,286047002.3,N
1541547155.4,286047002.0,N
1541547175.3,286047000.6,N
1541547195.1,286047000.3,N
1541547215.9,286047000.3,N
1541547235.7,286047004.3,N
1541547255.5,286047003.6,N
1541547275.4,286047003.2,N
1541547295.2,286047004.4,N
1541547315.1,286047004.3,N
1541547316.0,286047004.3,N
1541547335.8,286047001.5,N
1541547355.6,286047001.7,N
1541547375.5,286047004.2,N
1541547395.3,286047005.3,Y
1541547415.2,286047001.5,P
1541547435.9,286047002.5,P
1541547455.7,286047002.5,P
1541547475.6,286047001.0,N
1541547495.4,286046999.8,N
1541547515.2,286047002.8,N
1541547535.1,286047004.1,Y
1541547536.0,286047004.1,P
1541547555.8,286047000.0,N
1541547575.7,286047000.8,N
1541547595.5,286047001.1,N
1541547615.3,286046998.5,N
1541547635.2,286046998.8,N
1541547655.0,286046996.5,N
1541547655.9,286046996.5,N
1541547675.8,286046999.0,N
1541547695.6,286046998.4,N
1541547715.4,286047002.7,N
1541547735.3,286047000.0,N
1541547755.1,286046999.2,N
1541547775.8,286046998.3,N
1541547795.7,286046998.9,N
1541547815.5,286046999.5,N
1541547835.4,286047000.6,N
1541547855.2,286047000.8,N
1541547875.0,286047000.8,N
1541547875.9,286047000.8,N
1541547895.8,286046998.5,N
1541547915.6,286046996.5,N
1541547935.5,286046997.6,N
1541547955.3,286046997.0,N
1541547975.1,286046999.4,N
1541547995.9,286046998.9,N
1541548015.7,286046999.1,N
1541548035.5,286046998.7,N
1541548055.4,286047000.1,N
1541548075.2,286047002.2,N
1541548095.1,286047000.0,N
1541548096.0,286047000.0,N
1541548115.8,286046999.9,N
1541548135.6,286046998.7,N
1541548155.5,286046998.8,N
1541548175.3,286047002.8,N
1541548195.2,286047001.9,N
1541548215.9,286047002.3,N
1541548235.7,286047002.5,N
1541548255.6,286047000.5,N
1541548275.4,286047002.0,N
1541548295.2,286047001.3,N
1541548315.1,286047004.0,N
1541548316.0,286047004.0,N
1541548335.8,286047001.3,N
1541548355.7,286047001.7,N
1541548375.5,286047004.1,N
1541548395.3,286047004.0,N
1541548415.2,286047003.0,N
1541548435.0,286047003.4,N
1541548435.9,286047003.4,N
1541548455.8,286047005.6,N
1541548475.6,286047003.9,N
1541548495.4,286047002.6,N
1541548515.3,286047000.6,N
1541548535.1,286046999.7,N
1541548555.8,286047001.9,N
1541548575.7,286047002.6,N
1541548595.5,286047004.3,N
1541548615.4,286047003.2,N
1541548635.2,286047005.5,Y
1541548655.0,286047003.5,P
1541548655.9,286047003.5,P
1541548675.8,286047001.8,N
1541548695.6,286047002.3,N
1541548715.5,286046999.9,N
1541548735.3,286047000.2,N
1541548755.1,286047000.6,N
1541548775.9,286047000.5,N
1541548795.7,286047002.7,N
